TimeEDT,TemperatureF,Dew PointF,Humidity,Sea Level PressureIn,VisibilityMPH,Wind Direction,Wind SpeedMPH,Gust SpeedMPH,PrecipitationIn,Events,Conditions,WindDirDegrees,DateUTC
12:53 AM,23.0,12.9,65,30.31,10.0,WSW,6.9,-,N/A,,Clear,250,2013-03-14 04:53:00
1:53 AM,21.9,12.9,68,30.31,10.0,WSW,6.9,-,N/A,,Clear,250,2013-03-14 05:53:00
2:53 AM,21.9,12.9,68,30.31,10.0,WSW,8.1,-,N/A,,Clear,250,2013-03-14 06:53:00
3:53 AM,21.9,14.0,72,30.32,10.0,SW,5.8,-,N/A,,Clear,230,2013-03-14 07:53:00
4:53 AM,23.0,15.1,72,30.30,10.0,SW,4.6,-,N/A,,Clear,230,2013-03-14 08:53:00
5:53 AM,21.9,15.1,75,30.29,10.0,WSW,6.9,-,N/A,,Clear,240,2013-03-14 09:53:00
6:53 AM,23.0,15.1,72,30.29,10.0,SW,8.1,-,N/A,,Clear,230,2013-03-14 10:53:00
7:53 AM,21.0,15.1,78,30.30,9.0,Calm,Calm,-,N/A,,Clear,0,2013-03-14 11:53:00
8:53 AM,23.0,16.0,74,30.32,9.0,SW,5.8,-,N/A,,Clear,220,2013-03-14 12:53:00
9:53 AM,27.0,19.0,72,30.33,10.0,WSW,6.9,-,N/A,,Clear,250,2013-03-14 13:53:00
10:53 AM,30.0,21.0,69,30.33,10.0,WSW,9.2,-,N/A,,Clear,250,2013-03-14 14:53:00
11:53 AM,32.0,21.0,64,30.31,10.0,WSW,8.1,-,N/A,,Clear,240,2013-03-14 15:53:00
1:53 PM,37.0,21.0,52,30.27,10.0,SSW,6.9,-,N/A,,Clear,210,2013-03-14 17:53:00
2:53 PM,37.0,18.0,46,30.25,10.0,WSW,9.2,-,N/A,,Clear,250,2013-03-14 18:53:00
4:53 PM,41.0,21.0,45,30.20,10.0,WSW,8.1,-,N/A,,Scattered Clouds,250,2013-03-14 20:53:00
6:53 PM,39.0,19.9,46,30.18,10.0,West,10.4,-,N/A,,Clear,280,2013-03-14 22:53:00
7:53 PM,37.0,21.9,54,30.21,10.0,West,9.2,-,N/A,,Overcast,270,2013-03-14 23:53:00
8:53 PM,35.1,21.9,59,30.18,10.0,WSW,9.2,-,N/A,,Partly Cloudy,240,2013-03-15 00:53:00
9:53 PM,33.1,25.0,72,30.15,10.0,SW,6.9,-,N/A,,Clear,220,2013-03-15 01:53:00
10:53 PM,32.0,24.1,73,30.15,10.0,SW,4.6,-,N/A,,Partly Cloudy,230,2013-03-15 02:53:00
11:53 PM,33.1,27.0,78,30.14,10.0,SW,6.9,-,N/A,,Mostly Cloudy,230,2013-03-15 03:53:00